Theta_e
330 327 325 324 324 323 321 321 320 318 317 318 319 318 317 316 316 315 314 313 312 311 309 308 306 302 302 302 302 301 300 297 297 299 297 299 301 300
329 326 325 324 324 323 322 321 321 320 319 321 320 319 317 316 315 315 314 313 312 311 310 308 307 305 301 299 300 300 300 298 296 297 298 297 299 299
331 328 326 325 324 324 323 321 321 320 320 320 321 321 317 316 316 315 314 313 312 311 310 308 308 306 302 299 296 297 299 298 297 297 297 296 297 297
333 332 329 327 325 324 324 324 322 322 321 319 320 319 319 317 316 315 313 312 311 310 310 308 307 307 304 299 297 295 295 296 295 296 296 293 295 295
333 333 332 330 328 325 325 324 324 323 321 320 318 318 317 316 314 313 313 312 310 310 309 308 307 306 305 302 299 295 294 295 293 292 293 291 294 294
332 332 332 331 330 329 327 326 324 323 322 321 319 317 316 314 313 313 312 311 309 309 308 308 307 306 304 302 301 296 294 293 294 291 291 291 292 293
332 331 332 331 331 331 330 328 326 323 323 320 319 317 314 313 312 312 311 312 308 308 308 307 306 304 302 301 300 298 294 293 292 290 290 290 291 291
331 331 331 331 331 330 329 329 328 327 324 321 318 317 315 317 313 310 310 306 305 306 307 306 305 302 301 300 299 299 296 293 294 290 290 290 289 290
330 329 329 331 331 329 328 328 326 326 323 323 321 319 317 317 316 309 308 308 306 305 305 302 302 300 300 299 298 298 296 296 293 290 290 289 289 289
327 328 329 328 329 328 328 327 323 321 320 318 318 318 318 317 317 316 312 306 304 302 301 299 299 299 299 298 298 297 296 296 293 290 292 289 289 289
326 327 327 326 326 326 323 323 322 320 319 318 316 315 315 314 313 309 305 305 303 300 298 298 297 297 296 297 297 296 296 295 294 292 291 289 288 288
325 325 325 325 324 324 322 322 321 320 319 317 315 312 311 311 310 309 308 307 303 296 296 296 296 295 293 293 295 295 294 293 292 291 290 289 286 286
321 322 323 323 322 321 320 319 318 318 317 315 314 312 309 308 307 306 305 305 303 301 301 296 294 295 295 293 293 293 293 292 290 289 290 285 284 288
317 318 319 318 318 316 315 315 314 313 312 312 310 309 307 306 304 304 303 301 301 301 299 296 295 296 295 293 293 292 291 291 291 290 289 288 287 286
314 312 313 313 312 311 311 311 309 308 308 308 307 305 304 304 302 301 299 298 298 298 297 297 298 298 295 295 295 294 291 289 290 289 288 288 285 283
311 310 310 310 309 308 306 305 305 305 305 304 303 302 301 300 300 300 298 296 295 295 294 295 296 296 294 293 294 294 293 291 290 289 289 288 286 284
308 308 306 305 304 303 302 302 302 301 301 301 300 300 299 299 298 298 296 296 294 294 294 294 294 293 293 293 292 292 293 293 293 293 290 289 288 287
305 306 304 303 302 301 301 300 300 300 300 299 299 298 298 297 298 297 296 294 294 294 294 294 293 291 290 290 291 292 292 292 292 292 291 290 289 288
304 303 302 301 301 300 300 300 299 299 299 299 299 299 299 299 298 297 297 295 294 294 294 294 293 292 290 290 290 291 291 291 291 290 290 290 289 289
303 302 301 301 301 301 300 300 300 299 299 299 299 299 299 299 298 297 296 295 294 294 294 293 292 293 293 292 291 292 291 290 290 291 290 288 287 287
302 302 300 300 300 300 300 299 300 300 300 299 299 299 298 298 298 298 297 297 296 295 295 295 296 294 292 291 290 290 291 291 290 290 289 288 287 286
300 300 300 299 299 299 299 298 298 298 298 298 298 297 297 297 297 297 296 296 295 295 295 295 294 292 291 290 290 290 290 289 288 288 288 287 287 286
300 300 299 299 299 299 299 298 297 297 297 296 295 296 296 296 296 295 295 295 294 293 293 293 292 291 290 290 289 288 288 288 287 287 286 286 286 286
Wind_Speed
58 60 61 61 60 60 50 48 42 36 47 52 54 57 55 53 51 48 46 44 41 38 38 34 30 26 25 25 25 24 24 23 21 21 19 18 18 18
61 62 61 59 59 59 55 53 51 47 41 47 51 54 58 59 53 53 52 50 46 42 40 36 35 34 31 28 26 26 25 24 25 23 22 22 21 18
61 63 64 62 59 60 60 53 49 47 50 44 45 44 51 53 61 59 58 55 53 46 40 40 37 38 35 31 30 29 28 27 25 24 25 23 21 20
59 62 63 61 64 61 58 56 59 58 56 48 49 46 45 48 50 61 58 55 52 47 41 42 41 40 37 37 36 33 31 30 27 26 25 23 22 22
56 57 59 60 62 63 63 63 59 56 55 54 45 44 42 48 51 52 59 58 53 53 49 48 44 43 40 41 42 38 33 31 29 29 27 24 24 24
53 56 56 59 59 58 61 63 63 62 60 58 55 49 47 51 51 53 56 55 56 53 50 49 47 45 43 44 42 40 36 31 30 29 30 26 27 27
47 48 49 48 47 56 57 57 59 62 61 57 58 55 48 50 55 54 56 54 55 57 53 51 52 50 46 46 44 44 38 36 33 29 32 29 29 30
51 55 47 42 46 45 54 53 55 57 59 57 57 58 56 59 55 56 55 52 51 57 54 54 55 55 52 50 47 43 41 39 37 32 33 31 30 30
48 46 55 42 46 58 53 51 56 56 54 53 56 59 58 57 57 54 56 59 56 50 51 51 55 56 54 52 48 44 42 39 36 34 31 33 33 32
41 52 48 43 40 50 54 49 54 52 53 51 49 50 47 47 47 49 52 52 50 41 42 45 52 57 56 53 48 46 42 38 37 36 34 35 36 34
46 47 46 38 39 39 44 38 39 45 51 48 46 47 46 42 42 47 46 46 47 44 41 45 48 50 50 48 47 44 41 38 37 38 35 35 38 37
32 37 46 38 38 34 32 32 38 33 33 44 45 45 44 42 39 37 41 46 46 34 43 46 42 47 34 43 44 40 39 37 37 37 36 36 39 38
30 32 32 31 30 28 27 28 30 25 26 33 41 44 45 43 39 36 35 38 47 44 41 46 45 43 33 32 41 40 38 36 33 33 37 35 36 39
26 25 25 24 24 24 26 24 23 20 24 27 34 39 43 42 38 34 31 36 37 38 33 37 48 44 42 34 29 38 35 33 31 31 31 32 36 37
21 18 19 20 20 19 19 19 18 21 23 25 28 33 37 36 32 27 28 32 34 34 38 35 31 33 39 38 36 31 37 37 33 32 31 31 34 38
21 19 18 18 18 18 18 17 18 18 18 19 23 25 28 27 24 24 28 29 30 32 34 30 26 25 33 33 30 30 31 33 35 35 32 31 33 36
20 20 18 19 20 20 18 16 16 15 15 15 17 23 24 23 23 23 24 25 29 30 30 25 20 21 25 25 28 28 27 28 28 25 31 33 34 37
22 23 24 23 22 21 19 18 17 16 16 17 18 19 22 23 23 23 23 25 28 30 29 26 24 25 26 26 23 26 26 27 28 28 24 29 32 35
24 25 25 25 24 23 22 19 18 16 16 17 17 19 21 20 20 23 22 25 29 29 26 25 27 28 30 32 27 26 26 27 28 28 27 28 30 30
23 25 25 23 22 20 19 19 18 17 15 14 14 16 17 19 21 20 21 25 27 27 25 26 27 29 30 31 30 28 27 27 27 26 26 25 26 25
22 23 22 21 22 20 20 19 17 17 16 15 14 14 17 17 16 17 19 22 24 25 26 25 23 24 27 27 25 25 23 24 25 25 24 25 27 28
22 21 20 19 18 18 18 17 17 17 16 15 15 16 15 14 15 16 19 22 25 23 21 21 22 23 25 27 28 26 23 21 23 24 25 25 26 30
21 20 19 16 15 14 11 12 13 12 11 13 16 16 15 15 15 16 17 18 20 22 22 22 21 21 21 21 22 24 21 21 21 26 29 30 29 26
Wind_Direction
227 228 225 228 230 233 230 236 230 222 225 227 227 231 237 240 246 246 245 242 238 234 233 231 233 233 227 220 219 213 208 206 202 203 203 191 188 188
228 224 224 226 232 232 233 235 239 240 237 243 239 237 235 235 235 239 246 244 240 234 231 223 232 233 236 231 226 219 215 210 207 206 205 198 195 189
234 232 229 230 231 235 234 234 235 236 241 246 250 248 239 235 237 235 238 242 238 233 232 234 234 235 231 235 237 228 223 216 210 208 210 204 201 192
241 239 237 236 233 232 236 236 237 238 240 237 245 243 241 240 238 235 235 235 233 229 229 238 233 231 227 229 233 232 228 225 214 214 215 213 204 199
244 245 242 240 239 237 237 239 239 238 234 238 238 242 241 237 232 230 234 235 231 236 232 236 236 230 230 225 228 227 227 228 226 228 227 224 212 203
243 246 245 244 243 243 243 243 242 241 239 239 238 237 234 230 229 230 229 231 228 229 230 233 231 229 227 225 226 228 224 224 227 230 233 235 217 216
236 239 241 244 252 249 249 246 245 241 243 235 234 233 227 227 225 229 232 234 229 226 227 227 224 223 224 224 227 234 226 222 225 230 237 239 225 225
242 244 242 242 248 253 254 255 254 250 243 238 234 234 233 242 234 227 225 215 215 222 227 230 223 220 221 223 229 227 231 226 222 227 233 237 233 227
250 246 247 247 253 251 249 253 254 255 253 246 243 243 242 244 244 229 224 229 224 224 222 220 218 219 223 225 226 228 230 235 220 226 227 236 234 230
255 245 255 253 256 255 251 250 247 245 245 238 245 255 259 254 254 257 242 227 223 225 222 213 215 216 222 225 229 228 230 235 225 224 229 230 233 236
252 250 256 257 258 267 258 264 256 247 245 248 248 250 251 252 248 234 222 225 220 219 217 219 216 216 222 228 225 226 235 235 236 228 229 227 230 234
243 243 250 256 254 255 259 260 257 257 257 244 240 240 241 242 244 247 244 235 224 212 215 215 217 213 209 223 224 225 232 235 237 232 223 228 228 228
253 245 241 242 243 240 238 240 247 253 251 247 242 237 235 237 237 235 240 238 228 227 237 216 216 214 210 213 217 224 229 229 226 224 222 226 227 236
249 249 243 238 233 225 222 225 228 228 235 234 236 234 230 229 229 229 234 236 242 243 237 228 220 221 217 213 206 216 220 222 223 224 225 227 225 233
242 235 227 219 218 216 214 213 216 219 219 223 222 226 224 226 223 224 226 231 233 235 236 233 234 240 228 224 217 214 212 220 224 225 226 226 222 221
215 211 208 205 202 198 185 189 197 202 206 211 211 213 213 210 219 226 222 218 222 222 227 235 238 235 228 226 230 223 220 214 223 226 229 232 232 232
195 187 183 177 172 171 173 176 176 181 180 185 197 197 199 204 203 208 211 213 217 220 218 212 218 227 232 235 226 227 227 226 229 226 227 234 239 239
183 174 171 173 172 163 163 164 165 168 176 183 189 192 190 194 194 199 203 212 215 215 217 213 206 209 217 229 232 235 232 231 231 232 233 235 242 242
169 164 161 163 159 152 152 152 149 155 161 170 170 178 182 189 195 198 194 207 216 217 216 217 211 207 209 217 221 223 226 230 231 233 240 244 246 248
158 156 156 156 153 150 153 154 155 158 159 161 170 181 186 189 190 192 198 205 213 215 218 220 219 219 222 223 222 228 226 227 235 241 243 244 248 251
164 165 162 160 155 157 160 161 163 161 165 170 171 187 197 194 187 194 205 213 216 220 222 223 229 230 231 233 233 237 241 245 244 248 248 243 241 241
166 160 157 158 156 158 160 162 161 167 173 176 190 198 198 195 199 207 215 219 220 223 228 233 234 233 233 234 239 242 245 245 245 250 253 252 246 241
166 165 160 159 162 162 159 167 173 175 179 193 201 203 203 203 206 214 221 222 224 226 228 230 234 236 238 240 243 246 247 248 242 237 239 244 249 254